Regional Weather Roundup
Issued by NWS

Home | Current Version | Previous Version | Text Only | Print | Product List | Glossary On
Versions: 1 2 3 4 5 6 7 8 9 10 11 12 13 14 15 16 17 18 19 20 21 22 23 24 25 26 27 28 29 30 31 32 33 34 35 36 37 38 39 40 41 42 43 44 45 46 47 48 49 50
000
ASUS43 KLSX 030907
RWRMO

WEATHER SUMMARY FOR MISSOURI
NATIONAL WEATHER SERVICE SPRINGFIELD MO
400 AM CDT SUN MAY 03 2015

NOTE: "FAIR" INDICATES FEW OR NO CLOUDS BELOW 12,000 FEET WITH NO
       SIGNIFICANT WEATHER AND/OR OBSTRUCTIONS TO VISIBILITY.
       CURRENT SKY AND/OR WEATHER CONDITIONS ARE NOT AVAILABLE FOR
       CHILLICOTHE AND FARMINGTON.

MOZ001>031-035>038-043-044-053-054-031000-
...NORTHERN AND WESTERN MISSOURI...

CITY           SKY/WX    TMP DP  RH WIND       PRES   REMARKS
KANSAS CTY INT CLOUDY    66  53  63 S15G24    29.86R
KANSAS C DTWN  CLOUDY    68  52  56 S13       29.85F
LEE`S SUMMIT   CLOUDY    63  51  65 S12       29.88F
ST JOSEPH      CLOUDY    64  53  67 S10       29.83S
CHILLICOTHE      N/A     63  52  67 S8        29.89F
KIRKSVILLE     CLOUDY    57  50  77 S9        29.91F

$$
MOZ066>068-077>081-088>096-101>105-031000-
...SOUTHWEST MISSOURI...

CITY           SKY/WX    TMP DP  RH WIND       PRES   REMARKS
SPRINGFIELD    PTCLDY    59  48  67 S12       29.96F
JOPLIN         PTCLDY    62  50  64 S10       29.93F

$$
MOZ032>034-039>042-045>050-055>058-069>072-031000-
...CENTRAL MISSOURI...

CITY           SKY/WX    TMP DP  RH WIND       PRES   REMARKS
COLUMBIA       CLOUDY    58  46  64 S8        29.95F
JEFFERSON CITY CLOUDY    63  44  50 S7        29.95F
ROLLA          CLOUDY    61  45  55 S10       29.97F
SEDALIA        CLOUDY    61  51  70 S9        29.94S
WHITEMAN AFB   CLOUDY    58  52  80 S8        29.91S
WARRENSBURG    CLOUDY    61  50  67 S9        29.90S
OSAGE BEACH    CLOUDY    57  45  62 SE7       29.96F

$$
MOZ051-052-059>065-031000-
...EAST CENTRAL MISSOURI...

CITY           SKY/WX    TMP DP  RH WIND       PRES   REMARKS
ST LOUIS INTL  CLOUDY    67  43  41 S6        29.99F
SPIRIT OF STL  CLOUDY    63  43  48 SW5       29.98S
ST CHARLES     CLOUDY    61  50  67 E6        29.98S

$$
MOZ072>076-082>087-097>100-106>115-031000-
...SOUTH CENTRAL AND SOUTHEAST MISSOURI...

CITY           SKY/WX    TMP DP  RH WIND       PRES   REMARKS
CAPE GIRARDEAU MOCLDY    56  49  77 CALM      30.04S
FARMINGTON     CLOUDY    59  41  51 S6        30.06S
POPLAR BLUFF   CLOUDY    56  51  84 CALM      30.03S
WEST PLAINS    PTCLDY    60  42  51 S6        30.03F

$$



USA.gov is the U.S. government's official web portal to all federal, state and local government web resources and services.